Weather History for KLNK - February, 2012

Change the Weather History Date:

Sunday, February 19, 2012

  Actual Average Record
Temperature  
Mean Temperature 30 °F 30 °F  
Max Temperature 45 °F 41 °F 71 °F (1996)
Min Temperature 14 °F 19 °F -15 °F (1936)
Degree Days  
Heating Degree Days 35 35  
Month to date heating degree days 721 710  
Since 1 July heating degree days 4124 4407  
Cooling Degree Days 0 0  
Month to date cooling degree days 0 0  
Year to date cooling degree days 0 0  
Moisture  
Dew Point 22 °F    
Average Humidity 71    
Maximum Humidity 92    
Minimum Humidity 49    
Precipitation  
Precipitation 0.00 in 0.03 in 0.50 in (1891)
Month to date precipitation 1.67 0.50  
Year to date precipitation 1.83 1.14  
Snow  
Snow 0.00 in 0.20 in - ()
Month to date snowfall 12.3 4.0  
Since 1 July snowfall 18.8 18.1  
Snow Depth T in    
Sea Level Pressure  
Sea Level Pressure 30.07 in    
Wind  
Wind Speed 8 mph (SSE)    
Max Wind Speed 20 mph    
Max Gust Speed 38 mph    
Visibility 9 miles    
Events      
T = Trace of Precipitation, MM = Missing Value Source: NWS Daily Summary

Daily Weather History Graph

Daily Weather History Graph

Search for Another Location

Airport or City:

Trip Planner

Search our weather history database for the weather conditions in past years. The results will help you decide how hot, cold, wet, or windy it might be!

Date:

Astronomy

Feb. 19, 2012 Rise Set
Actual Time 7:16 AM CST 6:06 PM CST
Civil Twilight 6:48 AM CST 6:33 PM CST
Nautical Twilight 6:16 AM CST 7:05 PM CST
Astronomical Twilight 5:44 AM CST 7:37 PM CST
Moon 5:38 AM CST (2/19) 4:08 PM CST (2/19)
Length of Visible Light 11h 45m
Length of Day
10h 49m
Waning Crescent, 5% of the Moon is Illuminated
Feb 19
Waning Crescent
Feb 21
New
Feb 29
First Quarter
Mar 8
Full
Mar 14
Last Quarter

Hourly Weather History & Observations

Time (CST) Temp. Windchill Dew Point Humidity Pressure Visibility Wind Dir Wind Speed Gust Speed Precip Events Conditions
12:54 AM 19.9 °F - 17.1 °F 89% 30.18 in 9.0 mi Calm Calm - N/A   Clear
1:54 AM 19.0 °F - 16.0 °F 88% 30.17 in 8.0 mi Calm Calm - N/A   Clear
2:54 AM 19.0 °F - 16.0 °F 88% 30.16 in 7.0 mi Calm Calm - N/A   Clear
3:54 AM 16.0 °F - 12.9 °F 88% 30.14 in 7.0 mi Calm Calm - N/A   Clear
4:54 AM 16.0 °F - 14.0 °F 92% 30.14 in 7.0 mi Calm Calm - N/A   Clear
5:54 AM 17.6 °F - 12.2 °F 79% 30.09 in 8.0 mi Calm Calm - N/A   Clear
6:54 AM 15.8 °F - 12.2 °F 86% 30.10 in 7.0 mi Calm Calm - N/A   Clear
7:54 AM 18.0 °F - 15.1 °F 88% 30.15 in 6.0 mi Calm Calm - N/A   Clear
8:54 AM 23.0 °F 18.4 °F 19.9 °F 88% 30.16 in 7.0 mi SE 3.5 mph - N/A   Clear
9:54 AM 30.0 °F 25.2 °F 24.1 °F 79% 30.15 in 10.0 mi South 4.6 mph - N/A   Clear
10:54 AM 35.6 °F 29.2 °F 26.6 °F 70% 30.10 in 10.0 mi South 8.1 mph - N/A   Clear
11:54 AM 39.0 °F 32.3 °F 27.0 °F 62% 30.12 in 10.0 mi South 10.4 mph - N/A   Clear
12:54 PM 41.0 °F 33.9 °F 28.0 °F 60% 30.08 in 10.0 mi South 12.7 mph - N/A   Clear
1:54 PM 43.0 °F 36.4 °F 28.9 °F 58% 30.06 in 10.0 mi South 12.7 mph - N/A   Clear
2:54 PM 45.0 °F 38.2 °F 28.0 °F 52% 30.02 in 10.0 mi South 15.0 mph - N/A   Clear
3:54 PM 44.1 °F 37.7 °F 27.0 °F 51% 30.01 in 10.0 mi SE 12.7 mph - N/A   Clear
4:54 PM 44.1 °F 39.0 °F 27.0 °F 51% 29.99 in 10.0 mi SE 9.2 mph - N/A   Clear
5:54 PM 42.1 °F 36.1 °F 27.0 °F 55% 29.99 in 10.0 mi SE 10.4 mph - N/A   Clear
6:54 PM 39.9 °F 33.4 °F 27.0 °F 60% 29.99 in 10.0 mi SE 10.4 mph - N/A   Clear
7:54 PM 39.9 °F 32.1 °F 26.1 °F 58% 29.99 in 10.0 mi SE 13.8 mph - N/A   Clear
8:54 PM 39.0 °F 31.0 °F 25.0 °F 57% 29.97 in 10.0 mi SE 13.8 mph - N/A   Clear
9:54 PM 39.0 °F 30.6 °F 25.0 °F 57% 29.98 in 10.0 mi SSE 15.0 mph - N/A   Clear
10:54 PM 37.9 °F 28.9 °F 25.0 °F 60% 29.99 in 10.0 mi SE 16.1 mph - N/A   Mostly Cloudy
11:54 PM 37.9 °F 28.5 °F 27.0 °F 65% 29.96 in 10.0 mi SSE 17.3 mph 23.0 mph N/A   Overcast